DW9417 Weather Reports


Display with metric or nautical units.
time (UTC)temp
F
wind
direction
speed
MPH
gust
MPH
rain 1hr
in
rain 24hr
in
rain mn
in
humidity
%
barometer
mb
20260505210002 50 126 0.0 2.0 0.00 0.00 0.00 81 1028.5
20260505204559 50 127 0.0 4.0 0.00 0.00 0.00 80 1028.4
20260505203120 51 126 1.0 6.0 0.00 0.00 0.00 80 1028.4
20260505201603 51 101 2.0 4.0 0.00 0.00 0.00 79 1028.3
20260505200057 52 96 0.0 0.0 0.00 0.00 0.00 79 1028.2
20260505194553 52 96 0.0 6.0 0.00 0.00 0.00 79 1028.2
20260505193052 53 104 1.0 6.0 0.00 0.00 0.00 79 1028.2
20260505191601 52 115 2.0 7.0 0.00 0.00 0.00 79 1028.1
20260505190049 52 121 2.0 6.0 0.00 0.00 0.00 80 1028.0
20260505184550 52 124 2.0 7.0 0.00 0.00 0.00 80 1028.1
20260505183049 51 99 2.0 6.0 0.00 0.00 0.00 81 1028.1
20260505181548 51 122 0.0 0.0 0.00 0.00 0.00 78 1028.0
20260505180044 52 121 0.0 2.0 0.00 0.00 0.00 77 1028.0
20260505174545 53 123 2.0 8.0 0.00 0.00 0.00 77 1027.9
20260505173041 53 115 4.0 8.0 0.00 0.00 0.00 76 1027.8
20260505171544 53 104 2.0 7.0 0.00 0.00 0.00 76 1028.0
20260505170100 52 109 1.0 4.0 0.00 0.00 0.00 77 1027.9
20260505164541 52 100 0.0 0.0 0.00 0.00 0.00 74 1027.8
20260505163035 53 101 0.0 0.0 0.00 0.00 0.00 72 1027.9
20260505161529 54 114 1.0 6.0 0.00 0.00 0.00 72 1027.8
20260505153024 55 111 6.0 11.0 0.00 0.00 0.00 70 1027.6
20260505151523 55 158 1.0 6.0 0.00 0.00 0.00 70 1027.6
20260505124520 52 144 0.0 0.0 0.00 0.00 0.00 71 1027.0
20260505123018 53 143 0.0 0.0 0.00 0.00 0.00 71 1026.8
20260505121517 53 136 0.0 0.0 0.00 0.00 0.00 69 1026.7
20260505120019 54 143 0.0 0.0 0.00 0.00 0.00 68 1026.6
20260505114519 55 144 0.0 0.0 0.00 0.00 0.00 66 1026.5
20260505113020 56 144 0.0 0.0 0.00 0.00 0.00 65 1026.6
20260505111515 58 146 0.0 0.0 0.00 0.00 0.00 63 1026.3
20260505101518 60 150 0.0 2.0 0.00 0.00 0.00 59 1025.9
20260505100018 63 150 1.0 5.0 0.00 0.00 0.00 55 1025.7
20260505094512 66 150 0.0 2.0 0.00 0.00 0.00 50 1025.6
20260505093025 67 150 0.0 3.0 0.00 0.00 0.00 48 1025.4
20260505091512 68 135 1.0 4.0 0.00 0.00 0.00 47 1025.3
20260505090011 69 115 3.0 7.0 0.00 0.00 0.00 47 1025.2
20260505084510 70 133 2.0 8.0 0.00 0.00 0.00 46 1025.2
20260505083009 70 136 0.0 7.0 0.00 0.00 0.00 45 1025.0
20260505081510 71 137 3.0 8.0 0.00 0.00 0.00 44 1025.0
20260505080009 71 149 4.0 7.0 0.00 0.00 0.00 44 1025.0
20260505074507 71 115 3.0 9.0 0.00 0.00 0.00 44 1024.9
20260505073007 72 106 2.0 6.0 0.00 0.00 0.00 44 1024.9
20260505071506 72 123 1.0 7.0 0.00 0.00 0.00 43 1024.9
20260505070006 72 133 0.0 7.0 0.00 0.00 0.00 44 1024.9
20260505064509 72 134 1.0 6.0 0.00 0.00 0.00 44 1024.9
20260505063002 72 96 0.0 3.0 0.00 0.00 0.00 45 1025.0
20260505061503 71 117 3.0 9.0 0.00 0.00 0.00 44 1025.0
20260505060059 71 65 1.0 6.0 0.00 0.00 0.00 45 1025.0
20260505054559 71 105 0.0 6.0 0.00 0.00 0.00 46 1025.1
20260505053106 70 329 1.0 6.0 0.00 0.00 0.00 48 1025.1
20260505051553 70 208 1.0 4.0 0.00 0.00 0.00 49 1025.1
20260505041541 68 84 0.0 5.0 0.00 0.00 0.00 52 1026.3
20260505040040 67 323 1.0 9.0 0.00 0.00 0.00 53 1026.5
20260505034536 67 63 2.0 6.0 0.00 0.00 0.00 54 1026.8
20260505033059 66 315 2.0 8.0 0.00 0.00 0.00 55 1027.0
20260505031537 66 360 3.0 6.0 0.00 0.00 0.00 56 1027.1
20260505030032 66 51 2.0 6.0 0.00 0.00 0.00 57 1027.1
20260505024529 64 355 3.0 5.0 0.00 0.00 0.00 59 1027.2
20260505023028 64 81 2.0 5.0 0.00 0.00 0.00 60 1027.3
20260505021525 63 32 2.0 5.0 0.00 0.00 0.00 61 1027.5
20260505020021 62 46 2.0 6.0 0.00 0.00 0.00 67 1027.6
20260505014518 61 360 4.0 8.0 0.00 0.00 0.00 68 1027.6
20260505013013 59 49 2.0 9.0 0.00 0.00 0.00 71 1027.7
20260505011509 57 67 2.0 5.0 0.00 0.00 0.00 78 1027.7
20260505010004 53 65 1.0 4.0 0.00 0.00 0.00 87 1027.7
20260505004602 50 92 0.0 0.0 0.00 0.00 0.00 93 1027.8
20260505003059 49 92 0.0 0.0 0.00 0.00 0.00 93 1027.9
20260505001553 47 92 0.0 0.0 0.00 0.00 0.00 93 1027.7
20260505000050 45 80 0.0 0.0 0.00 0.00 0.00 93 1027.5
20260504234611 43 84 0.0 0.0 0.00 0.00 0.00 92 1027.5
20260504233043 43 86 0.0 0.0 0.00 0.00 0.00 92 1027.4
20260504231551 43 90 0.0 0.0 0.00 0.00 0.00 91 1027.3
20260504230039 43 90 0.0 0.0 0.00 0.00 0.00 91 1027.2
20260504224539 43 90 0.0 0.0 0.00 0.00 0.00 91 1027.1
20260504223039 43 90 0.0 0.0 0.00 0.00 0.00 91 1026.9
20260504221536 43 90 0.0 0.0 0.00 0.00 0.00 90 1026.9
20260504220025 43 90 0.0 0.0 0.00 0.00 0.00 90 1026.9
20260504214533 44 91 0.0 0.0 0.00 0.01 0.00 90 1026.8
20260504213028 44 91 0.0 0.0 0.00 0.01 0.00 90 1026.7
20260504211522 44 91 0.0 0.0 0.00 0.01 0.00 90 1026.7